EA3HRE-13 Weather Reports


time (UTC)temp
C
wind
direction
speed
KPH
gust
KPH
rain 1hr
cm
rain 24hr
cm
rain mn
cm
humidity
%
barometer
mb
20260504081335 20 0 0.0 0.0 0.00 0.00 0.00 100 1013.5
20260504080334 19 0 0.0 0.0 0.00 0.00 0.00 100 1013.5
20260504070235 19 79 0.0 0.0 0.00 0.00 0.00 100 1013.5
20260504060121 17 33 0.0 0.0 0.00 0.00 0.00 100 1013.7
20260504045051 15 13 0.0 0.0 0.00 0.00 0.00 100 1013.7
20260504044050 15 16 0.0 0.0 0.00 0.00 0.00 100 1013.8
20260504043020 15 10 0.0 0.0 0.00 0.00 0.00 100 1013.7
20260504042020 15 8 0.0 0.0 0.00 0.00 0.00 100 1013.7
20260504041020 15 6 0.0 0.0 0.00 0.00 0.00 100 1013.7
20260504040020 15 0 0.0 0.0 0.00 0.00 0.00 100 1013.9
20260504034950 15 0 0.0 0.0 0.00 0.00 0.00 100 1014.0
20260504033950 15 0 0.0 0.0 0.00 0.00 0.00 100 1014.0
20260504032950 15 0 0.0 0.0 0.00 0.00 0.00 100 1014.0
20260504031950 15 5 0.0 0.0 0.00 0.00 0.00 100 1014.0
20260504030919 15 21 0.0 0.0 0.00 0.00 0.00 100 1014.0
20260504025902 15 23 0.0 0.0 0.00 0.00 0.00 100 1013.9
20260504024902 15 28 0.0 0.0 0.00 0.00 0.00 100 1013.8
20260504023901 15 18 0.0 0.0 0.00 0.00 0.00 100 1014.0
20260504022901 15 13 0.0 0.0 0.00 0.00 0.00 100 1013.8
20260504021901 15 44 0.0 0.0 0.00 0.00 0.00 100 1013.7
20260504020901 15 27 0.0 0.0 0.00 0.00 0.00 100 1013.7
20260504015831 15 25 0.0 0.0 0.00 0.00 0.00 100 1013.8
20260504014831 15 4 0.0 0.0 0.00 0.00 0.00 100 1014.0
20260504013801 15 17 0.0 0.0 0.00 0.00 0.00 100 1014.2
20260504012731 15 11 0.0 0.0 0.00 0.00 0.00 100 1014.2
20260504011731 15 18 0.0 0.0 0.00 0.00 0.00 100 1014.3
20260504010731 15 29 0.0 0.0 0.00 0.00 0.00 100 1014.2
20260504005731 15 33 0.0 0.0 0.00 0.00 0.00 100 1014.1
20260504004731 15 23 0.0 0.0 0.00 0.00 0.00 100 1014.4
20260504003700 15 17 0.0 0.0 0.00 0.00 0.00 100 1014.5
20260504002700 15 25 0.0 0.0 0.00 0.00 0.00 100 1014.4
20260504001700 15 22 0.0 0.0 0.00 0.00 0.00 100 1014.5
20260504000700 15 7 0.0 0.0 0.00 0.00 0.00 100 1014.5
20260503235700 15 16 0.0 0.0 0.00 0.00 0.00 100 1014.5
20260503234630 15 19 0.0 0.0 0.00 0.00 0.00 100 1014.7
20260503233630 15 22 0.0 0.0 0.00 0.00 0.00 100 1014.6
20260503232630 15 21 0.0 0.0 0.00 0.00 0.00 100 1014.8
20260503231630 15 9 0.0 0.0 0.00 0.00 0.00 100 1014.7
20260503230600 15 19 0.0 0.0 0.00 0.00 0.00 100 1014.7
20260503225600 15 8 0.0 0.0 0.00 0.00 0.00 100 1014.6
20260503224530 15 17 0.0 0.0 0.00 0.00 0.00 100 1014.7
20260503223529 15 4 0.0 0.0 0.00 0.00 0.00 100 1014.6
20260503222529 15 22 0.0 0.0 0.00 0.00 0.00 100 1014.7
20260503221529 15 13 0.0 0.0 0.00 0.00 0.00 100 1014.7
20260503220459 15 23 0.0 0.0 0.00 0.00 0.00 100 1014.7
20260503215459 15 35 0.0 0.0 0.00 0.00 0.00 100 1014.5
20260503214459 15 37 0.0 0.0 0.00 0.00 0.00 100 1014.6
20260503213459 15 32 0.0 0.0 0.00 0.00 0.00 100 1014.5
20260503212459 15 12 0.0 0.0 0.00 0.00 0.00 100 1014.6
20260503211459 15 15 0.0 0.0 0.00 0.00 0.00 100 1014.5
20260503210459 15 18 0.0 0.0 0.00 0.00 0.00 100 1014.5
20260503205458 16 22 0.0 0.0 0.00 0.00 0.00 100 1014.6
20260503204458 16 19 0.0 0.0 0.00 0.00 0.00 100 1014.7
20260503203428 16 14 0.0 0.0 0.00 0.00 0.00 100 1014.6
20260503202428 16 12 0.0 0.0 0.00 0.00 0.00 100 1014.8
20260503201428 16 13 0.0 0.0 0.00 0.00 0.00 100 1014.7
20260503200428 16 31 0.0 0.0 0.00 0.00 0.00 100 1014.6
20260503195358 16 22 0.0 0.0 0.00 0.00 0.00 100 1014.7
20260503194358 16 22 0.0 0.0 0.00 0.00 0.00 100 1014.8
20260503193358 16 22 0.0 0.0 0.00 0.00 0.00 100 1014.6
20260503192358 16 23 0.0 0.0 0.00 0.00 0.00 100 1014.5
20260503191358 16 23 0.0 0.0 0.00 0.00 0.00 100 1014.4
20260503190328 16 24 0.0 0.0 0.00 0.00 0.00 100 1014.3
20260503185328 17 18 0.0 0.0 0.00 0.00 0.00 100 1014.2
20260503184328 17 15 0.0 0.0 0.00 0.00 0.00 100 1014.3
20260503183327 17 0 0.0 0.0 0.00 0.00 0.00 100 1014.2
20260503182327 17 86 0.0 0.0 0.00 0.00 0.00 100 1014.2
20260503181327 17 86 0.0 0.0 0.00 0.00 0.00 100 1014.2
20260503180257 17 44 0.0 0.0 0.00 0.00 0.00 100 1014.4
20260503175257 17 358 0.0 0.0 0.00 0.00 0.00 100 1014.2
20260503174227 17 38 0.0 0.0 0.00 0.00 0.00 100 1014.2
20260503173227 18 66 0.0 0.0 0.00 0.00 0.00 100 1014.4
20260503172157 18 134 0.0 0.0 0.00 0.00 0.00 100 1014.4
20260503171157 18 140 0.0 0.0 0.00 0.00 0.00 100 1014.3
20260503170157 18 100 0.0 0.0 0.00 0.00 0.00 100 1014.1
20260503160156 19 98 0.0 0.0 0.00 0.00 0.00 100 1013.7
20260503150126 20 127 0.0 0.0 0.00 0.00 0.00 100 1014.0
20260503131025 21 148 0.0 0.0 0.00 0.00 0.00 100 1015.5